GSAT0103 (GALILEO-FM3)

Last updated on Jan. 15, 2021, 6:30 a.m. UTC

1 38857U 12055A   21014.16426764  .00000011  00000-0  00000-0 0  9990
2 38857  55.0161 155.9819 0001835 237.9038 122.0147  1.70473640 51407
UTC
Height (km)
Latitude
Longitude
Inclination
Orbital Period
UTC large
Height (km)
Speed (km/s)
/
Latitude / Longitude
Inclination (degrees)
Orbital Period (minutes)
Azimuth
Elevation
Range (km)
Doppler Factor
iOS Compass Heading
iOS Angle

Next 30 passes for location: Hong Kong

Rise time Rise Azimuth (degrees) Set time Set Azimuth (degrees) Duration Max altitude (degrees)

No matching passes for this satellites